| time (UTC) | temp F | wind direction | speed knots | gust knots | rain 1hr in | rain 24hr in | rain mn in | humidity % | barometer mb |
| 20260507052348 | 55 | 342 | 0.0 | 0.9 | 0.00 | 0.00 | 0.00 | 85 | 1020.9 |
| 20260507051845 | 55 | 318 | 0.9 | 1.7 | 0.00 | 0.00 | 0.00 | 85 | 1020.8 |
| 20260507051343 | 55 | 4 | 0.9 | 1.7 | 0.00 | 0.00 | 0.00 | 85 | 1020.8 |
| 20260507050839 | 55 | 0 | 0.0 | 1.7 | 0.00 | 0.00 | 0.00 | 85 | 1020.9 |
| 20260507050336 | 55 | 306 | 2.6 | 2.6 | 0.00 | 0.00 | 0.00 | 85 | 1020.9 |
| 20260507045833 | 55 | 293 | 0.0 | 1.7 | 0.00 | 0.00 | 0.00 | 86 | 1020.8 |
| 20260507045329 | 55 | 0 | 0.0 | 1.7 | 0.00 | 0.00 | 0.00 | 85 | 1020.8 |
| 20260507044826 | 55 | 9 | 0.0 | 1.7 | 0.00 | 0.00 | 0.00 | 85 | 1020.7 |
| 20260507044323 | 55 | 17 | 0.0 | 1.7 | 0.00 | 0.00 | 0.00 | 85 | 1020.8 |
| 20260507043819 | 55 | 314 | 0.9 | 1.7 | 0.00 | 0.00 | 0.00 | 84 | 1021.0 |
| 20260507043316 | 55 | 350 | 0.9 | 1.7 | 0.00 | 0.00 | 0.00 | 84 | 1020.8 |
| 20260507042812 | 55 | 326 | 1.7 | 1.7 | 0.00 | 0.00 | 0.00 | 84 | 1020.6 |
| 20260507042308 | 55 | 328 | 1.7 | 1.7 | 0.00 | 0.00 | 0.00 | 83 | 1020.8 |
| 20260507041805 | 55 | 340 | 1.7 | 2.6 | 0.00 | 0.00 | 0.00 | 83 | 1020.5 |
| 20260507041301 | 55 | 288 | 1.7 | 2.6 | 0.00 | 0.00 | 0.00 | 84 | 1020.7 |
| 20260507040759 | 55 | 354 | 1.7 | 1.7 | 0.00 | 0.00 | 0.00 | 85 | 1020.6 |
| 20260507040255 | 55 | 34 | 1.7 | 1.7 | 0.00 | 0.00 | 0.00 | 84 | 1020.7 |
| 20260507035751 | 55 | 10 | 0.9 | 1.7 | 0.00 | 0.00 | 0.00 | 84 | 1020.7 |
| 20260507035246 | 55 | 301 | 3.5 | 3.5 | 0.00 | 0.00 | 0.00 | 84 | 1020.5 |
| 20260507034744 | 55 | 346 | 1.7 | 2.6 | 0.00 | 0.00 | 0.00 | 84 | 1020.6 |
| 20260507034241 | 55 | 328 | 1.7 | 1.7 | 0.00 | 0.00 | 0.00 | 83 | 1020.4 |
| 20260507033739 | 55 | 315 | 0.9 | 1.7 | 0.00 | 0.00 | 0.00 | 83 | 1020.5 |
| 20260507033236 | 55 | 31 | 0.9 | 1.7 | 0.00 | 0.00 | 0.00 | 82 | 1020.3 |
| 20260507032733 | 56 | 332 | 1.7 | 1.7 | 0.00 | 0.00 | 0.00 | 81 | 1020.5 |
| 20260507032229 | 56 | 338 | 0.9 | 1.7 | 0.00 | 0.00 | 0.00 | 81 | 1020.3 |
| 20260507031726 | 56 | 340 | 2.6 | 2.6 | 0.00 | 0.00 | 0.00 | 80 | 1020.3 |
| 20260507031223 | 56 | 326 | 0.9 | 1.7 | 0.00 | 0.00 | 0.00 | 80 | 1020.5 |
| 20260507030720 | 56 | 333 | 1.7 | 1.7 | 0.00 | 0.00 | 0.00 | 80 | 1020.3 |
| 20260507030217 | 56 | 8 | 1.7 | 1.7 | 0.00 | 0.00 | 0.00 | 80 | 1020.3 |
| 20260507025714 | 56 | 341 | 1.7 | 2.6 | 0.00 | 0.00 | 0.00 | 79 | 1020.2 |
| 20260507025211 | 56 | 294 | 2.6 | 3.5 | 0.00 | 0.00 | 0.00 | 79 | 1020.1 |
| 20260507024710 | 56 | 325 | 2.6 | 2.6 | 0.00 | 0.00 | 0.00 | 79 | 1020.3 |
| 20260507024206 | 56 | 324 | 1.7 | 2.6 | 0.00 | 0.00 | 0.00 | 79 | 1020.2 |
| 20260507023701 | 57 | 343 | 1.7 | 2.6 | 0.00 | 0.00 | 0.00 | 79 | 1020.3 |
| 20260507023159 | 56 | 356 | 0.9 | 1.7 | 0.00 | 0.00 | 0.00 | 79 | 1020.1 |
| 20260507022656 | 56 | 336 | 0.9 | 2.6 | 0.00 | 0.00 | 0.00 | 79 | 1020.2 |
| 20260507022152 | 56 | 300 | 0.9 | 1.7 | 0.00 | 0.00 | 0.00 | 78 | 1020.1 |
| 20260507021648 | 57 | 281 | 1.7 | 2.6 | 0.00 | 0.00 | 0.00 | 78 | 1020.4 |
| 20260507021143 | 57 | 320 | 1.7 | 2.6 | 0.00 | 0.00 | 0.00 | 78 | 1020.2 |
| 20260507020643 | 57 | 312 | 1.7 | 1.7 | 0.00 | 0.00 | 0.00 | 77 | 1020.2 |
| 20260507020138 | 57 | 326 | 0.0 | 2.6 | 0.00 | 0.00 | 0.00 | 77 | 1020.2 |
| 20260507015637 | 57 | 330 | 1.7 | 2.6 | 0.00 | 0.00 | 0.00 | 77 | 1020.2 |
| 20260507015134 | 57 | 357 | 1.7 | 1.7 | 0.00 | 0.00 | 0.00 | 77 | 1020.2 |
| 20260507014630 | 57 | 317 | 0.9 | 1.7 | 0.00 | 0.00 | 0.00 | 78 | 1020.0 |
| 20260507014126 | 57 | 330 | 1.7 | 2.6 | 0.00 | 0.00 | 0.00 | 78 | 1020.0 |
| 20260507013623 | 57 | 309 | 3.5 | 4.3 | 0.00 | 0.00 | 0.00 | 76 | 1020.0 |
| 20260507013120 | 57 | 24 | 3.5 | 3.5 | 0.00 | 0.00 | 0.00 | 79 | 1020.0 |
| 20260507012617 | 57 | 348 | 1.7 | 2.6 | 0.00 | 0.00 | 0.00 | 80 | 1020.1 |
| 20260507012113 | 57 | 26 | 1.7 | 1.7 | 0.00 | 0.00 | 0.00 | 80 | 1020.1 |
| 20260507011611 | 57 | 320 | 1.7 | 1.7 | 0.00 | 0.00 | 0.00 | 80 | 1020.1 |
| 20260507011107 | 57 | 321 | 1.7 | 2.6 | 0.00 | 0.00 | 0.00 | 80 | 1020.1 |
| 20260507010602 | 57 | 14 | 1.7 | 2.6 | 0.00 | 0.00 | 0.00 | 80 | 1020.3 |
| 20260507010058 | 57 | 305 | 0.9 | 1.7 | 0.00 | 0.00 | 0.00 | 81 | 1020.1 |
| 20260507005556 | 57 | 329 | 2.6 | 3.5 | 0.00 | 0.00 | 0.00 | 81 | 1020.2 |
| 20260507005052 | 57 | 34 | 1.7 | 2.6 | 0.00 | 0.00 | 0.00 | 81 | 1020.1 |
| 20260507004549 | 57 | 325 | 2.6 | 2.6 | 0.00 | 0.00 | 0.00 | 81 | 1020.3 |
| 20260507004046 | 57 | 326 | 1.7 | 2.6 | 0.00 | 0.00 | 0.00 | 81 | 1020.3 |
| 20260507003542 | 57 | 332 | 1.7 | 3.5 | 0.00 | 0.00 | 0.00 | 81 | 1020.3 |
| 20260507003037 | 57 | 358 | 0.9 | 3.5 | 0.00 | 0.00 | 0.00 | 80 | 1020.3 |
| 20260507002534 | 58 | 27 | 2.6 | 3.5 | 0.00 | 0.00 | 0.00 | 79 | 1020.3 |
| 20260507002030 | 58 | 23 | 2.6 | 3.5 | 0.00 | 0.00 | 0.00 | 79 | 1020.2 |
| 20260507001527 | 58 | 31 | 3.5 | 3.5 | 0.00 | 0.00 | 0.00 | 79 | 1020.0 |
| 20260507001025 | 58 | 4 | 2.6 | 3.5 | 0.00 | 0.00 | 0.00 | 78 | 1020.1 |
| 20260507000520 | 58 | 35 | 2.6 | 3.5 | 0.00 | 0.00 | 0.00 | 78 | 1020.0 |
| 20260507000016 | 58 | 4 | 1.7 | 3.5 | 0.00 | 0.00 | 0.00 | 77 | 1020.1 |
| 20260506235514 | 58 | 28 | 2.6 | 3.5 | 0.00 | 0.00 | 0.00 | 76 | 1020.3 |
| 20260506235009 | 59 | 29 | 3.5 | 3.5 | 0.00 | 0.00 | 0.00 | 75 | 1020.1 |
| 20260506234507 | 59 | 5 | 1.7 | 3.5 | 0.00 | 0.00 | 0.00 | 76 | 1020.1 |
| 20260506234004 | 59 | 4 | 1.7 | 3.5 | 0.00 | 0.00 | 0.00 | 77 | 1020.1 |
| 20260506233500 | 59 | 30 | 1.7 | 3.5 | 0.00 | 0.00 | 0.00 | 77 | 1020.0 |
| 20260506232957 | 59 | 6 | 1.7 | 2.6 | 0.00 | 0.00 | 0.00 | 78 | 1020.1 |
| 20260506232454 | 59 | 296 | 1.7 | 3.5 | 0.00 | 0.00 | 0.00 | 77 | 1020.1 |
| 20260506231949 | 59 | 30 | 2.6 | 3.5 | 0.00 | 0.00 | 0.00 | 75 | 1020.1 |
| 20260506231447 | 59 | 28 | 1.7 | 2.6 | 0.00 | 0.00 | 0.00 | 75 | 1020.2 |
| 20260506230944 | 59 | 304 | 0.9 | 5.2 | 0.00 | 0.00 | 0.00 | 72 | 1020.2 |
| 20260506230440 | 59 | 42 | 4.3 | 5.2 | 0.00 | 0.00 | 0.00 | 74 | 1020.1 |
| 20260506225937 | 60 | 353 | 2.6 | 4.3 | 0.00 | 0.00 | 0.00 | 72 | 1020.1 |
| 20260506225434 | 59 | 314 | 1.7 | 2.6 | 0.00 | 0.00 | 0.00 | 69 | 1020.2 |
| 20260506224931 | 59 | 299 | 3.5 | 4.3 | 0.00 | 0.00 | 0.00 | 70 | 1020.3 |
| 20260506224428 | 59 | 323 | 3.5 | 3.5 | 0.00 | 0.00 | 0.00 | 71 | 1020.3 |
| 20260506223925 | 59 | 11 | 0.0 | 7.0 | 0.00 | 0.00 | 0.00 | 70 | 1020.2 |
| 20260506223420 | 60 | 287 | 3.5 | 3.5 | 0.00 | 0.00 | 0.00 | 69 | 1020.2 |
| 20260506222918 | 59 | 10 | 3.5 | 4.3 | 0.00 | 0.00 | 0.00 | 69 | 1020.1 |
| 20260506222414 | 60 | 307 | 3.5 | 4.3 | 0.00 | 0.00 | 0.00 | 67 | 1020.3 |
| 20260506221911 | 60 | 297 | 1.7 | 3.5 | 0.00 | 0.00 | 0.00 | 68 | 1020.4 |
| 20260506221408 | 60 | 313 | 0.0 | 4.3 | 0.00 | 0.00 | 0.00 | 68 | 1020.4 |
| 20260506220906 | 59 | 3 | 1.7 | 4.3 | 0.00 | 0.00 | 0.00 | 69 | 1020.2 |
| 20260506220401 | 59 | 48 | 3.5 | 7.8 | 0.00 | 0.00 | 0.00 | 68 | 1020.4 |
| 20260506215858 | 59 | 307 | 0.9 | 3.5 | 0.00 | 0.00 | 0.00 | 67 | 1020.4 |
| 20260506215354 | 60 | 41 | 1.7 | 5.2 | 0.00 | 0.00 | 0.00 | 68 | 1020.6 |
| 20260506214850 | 59 | 1 | 1.7 | 2.6 | 0.00 | 0.00 | 0.00 | 69 | 1020.4 |
| 20260506214347 | 59 | 311 | 2.6 | 3.5 | 0.00 | 0.00 | 0.00 | 68 | 1020.5 |
| 20260506213845 | 60 | 25 | 2.6 | 3.5 | 0.00 | 0.00 | 0.00 | 68 | 1020.5 |
| 20260506213342 | 59 | 11 | 1.7 | 3.5 | 0.00 | 0.00 | 0.00 | 69 | 1020.4 |
| 20260506212839 | 60 | 355 | 2.6 | 5.2 | 0.00 | 0.00 | 0.00 | 67 | 1020.4 |
| 20260506212335 | 59 | 288 | 1.7 | 6.1 | 0.00 | 0.00 | 0.00 | 69 | 1020.3 |
| 20260506211830 | 59 | 294 | 2.6 | 4.3 | 0.00 | 0.00 | 0.00 | 68 | 1020.3 |
| 20260506211326 | 59 | 25 | 1.7 | 3.5 | 0.00 | 0.00 | 0.00 | 69 | 1020.5 |
| 20260506210824 | 59 | 235 | 5.2 | 7.0 | 0.00 | 0.00 | 0.00 | 69 | 1020.4 |
| 20260506210321 | 59 | 351 | 1.7 | 5.2 | 0.00 | 0.00 | 0.00 | 69 | 1020.4 |
| 20260506205818 | 58 | 285 | 0.0 | 4.3 | 0.00 | 0.00 | 0.00 | 71 | 1020.3 |
| 20260506205314 | 58 | 223 | 3.5 | 6.1 | 0.00 | 0.00 | 0.00 | 70 | 1020.4 |
| 20260506204810 | 59 | 286 | 2.6 | 5.2 | 0.00 | 0.00 | 0.00 | 70 | 1020.3 |
| 20260506204308 | 59 | 287 | 6.1 | 6.1 | 0.00 | 0.00 | 0.00 | 71 | 1020.4 |
| 20260506203806 | 59 | 28 | 0.9 | 4.3 | 0.00 | 0.00 | 0.00 | 70 | 1020.3 |
| 20260506203303 | 60 | 261 | 4.3 | 8.7 | 0.00 | 0.00 | 0.00 | 69 | 1020.4 |
| 20260506202759 | 59 | 331 | 1.7 | 3.5 | 0.00 | 0.00 | 0.00 | 70 | 1020.2 |
| 20260506202256 | 59 | 288 | 5.2 | 7.0 | 0.00 | 0.00 | 0.00 | 70 | 1020.2 |
| 20260506201753 | 59 | 337 | 1.7 | 5.2 | 0.00 | 0.00 | 0.00 | 71 | 1020.3 |
| 20260506201249 | 59 | 301 | 2.6 | 4.3 | 0.00 | 0.00 | 0.00 | 72 | 1020.0 |
| 20260506200747 | 59 | 248 | 2.6 | 7.0 | 0.00 | 0.00 | 0.00 | 73 | 1020.1 |
| 20260506200243 | 58 | 335 | 0.0 | 3.5 | 0.00 | 0.00 | 0.00 | 73 | 1020.4 |
| 20260506195739 | 58 | 353 | 0.9 | 5.2 | 0.00 | 0.00 | 0.00 | 73 | 1020.3 |
| 20260506195236 | 57 | 318 | 0.9 | 3.5 | 0.00 | 0.00 | 0.00 | 75 | 1020.3 |
| 20260506194733 | 57 | 58 | 0.0 | 6.1 | 0.00 | 0.00 | 0.00 | 74 | 1020.3 |
| 20260506194230 | 58 | 320 | 4.3 | 7.0 | 0.00 | 0.00 | 0.00 | 73 | 1020.3 |
| 20260506193728 | 58 | 224 | 4.3 | 4.3 | 0.00 | 0.00 | 0.00 | 73 | 1020.3 |
| 20260506193224 | 58 | 229 | 0.9 | 5.2 | 0.00 | 0.00 | 0.00 | 74 | 1020.1 |
| 20260506192721 | 58 | 275 | 1.7 | 5.2 | 0.00 | 0.00 | 0.00 | 74 | 1020.1 |
| 20260506192218 | 58 | 355 | 0.9 | 5.2 | 0.00 | 0.00 | 0.00 | 77 | 1020.1 |
| 20260506191714 | 57 | 323 | 1.7 | 2.6 | 0.00 | 0.00 | 0.00 | 76 | 1020.0 |
| 20260506191210 | 57 | 335 | 0.9 | 3.5 | 0.00 | 0.00 | 0.00 | 77 | 1020.0 |
| 20260506190708 | 58 | 349 | 1.7 | 7.0 | 0.00 | 0.00 | 0.00 | 76 | 1020.2 |
| 20260506190204 | 58 | 245 | 1.7 | 4.3 | 0.00 | 0.00 | 0.00 | 76 | 1019.8 |
| 20260506185702 | 58 | 23 | 5.2 | 7.0 | 0.00 | 0.00 | 0.00 | 75 | 1020.1 |
| 20260506185158 | 58 | 312 | 0.9 | 2.6 | 0.00 | 0.00 | 0.00 | 76 | 1019.7 |
| 20260506184655 | 58 | 13 | 0.0 | 5.2 | 0.00 | 0.00 | 0.00 | 79 | 1019.9 |
| 20260506184153 | 57 | 3 | 1.7 | 3.5 | 0.00 | 0.00 | 0.00 | 80 | 1020.0 |
| 20260506183649 | 57 | 237 | 1.7 | 7.0 | 0.00 | 0.00 | 0.00 | 78 | 1020.1 |
| 20260506183145 | 57 | 44 | 5.2 | 5.2 | 0.00 | 0.00 | 0.00 | 78 | 1020.0 |
| 20260506182643 | 58 | 101 | 2.6 | 7.8 | 0.00 | 0.00 | 0.00 | 77 | 1019.9 |
| 20260506182139 | 57 | 33 | 0.0 | 3.5 | 0.00 | 0.00 | 0.00 | 78 | 1019.7 |
| 20260506181637 | 57 | 287 | 1.7 | 4.3 | 0.00 | 0.00 | 0.00 | 78 | 1020.1 |
| 20260506181134 | 57 | 269 | 2.6 | 8.7 | 0.00 | 0.00 | 0.00 | 78 | 1019.9 |
| 20260506180631 | 57 | 332 | 0.0 | 5.2 | 0.00 | 0.00 | 0.00 | 79 | 1019.7 |
| 20260506180128 | 57 | 277 | 4.3 | 4.3 | 0.00 | 0.00 | 0.00 | 81 | 1019.9 |
| 20260506175624 | 56 | 47 | 3.5 | 5.2 | 0.00 | 0.00 | 0.00 | 83 | 1020.0 |
| 20260506175120 | 56 | 300 | 4.3 | 5.2 | 0.00 | 0.00 | 0.00 | 84 | 1020.0 |
| 20260506174619 | 56 | 301 | 3.5 | 4.3 | 0.00 | 0.00 | 0.00 | 83 | 1019.8 |
| 20260506174115 | 56 | 0 | 1.7 | 4.3 | 0.00 | 0.00 | 0.00 | 83 | 1019.8 |
| 20260506173613 | 56 | 293 | 3.5 | 5.2 | 0.00 | 0.00 | 0.00 | 82 | 1019.9 |
| 20260506173110 | 56 | 340 | 6.1 | 6.1 | 0.00 | 0.00 | 0.00 | 81 | 1019.7 |
| 20260506172607 | 56 | 25 | 1.7 | 2.6 | 0.00 | 0.00 | 0.00 | 81 | 1019.6 |
| 20260506172103 | 56 | 77 | 2.6 | 7.0 | 0.00 | 0.00 | 0.00 | 81 | 1019.5 |
| 20260506171601 | 56 | 39 | 7.8 | 9.6 | 0.00 | 0.00 | 0.00 | 81 | 1019.5 |
| 20260506171058 | 56 | 48 | 1.7 | 3.5 | 0.00 | 0.00 | 0.00 | 82 | 1019.5 |
| 20260506170550 | 56 | 355 | 1.7 | 3.5 | 0.00 | 0.00 | 0.00 | 82 | 1019.4 |
| 20260506170047 | 56 | 323 | 2.6 | 2.6 | 0.00 | 0.00 | 0.00 | 83 | 1019.7 |
| 20260506165545 | 55 | 318 | 0.0 | 5.2 | 0.00 | 0.00 | 0.00 | 84 | 1019.8 |
| 20260506165041 | 55 | 87 | 2.6 | 3.5 | 0.00 | 0.00 | 0.00 | 84 | 1019.7 |
| 20260506164538 | 55 | 332 | 1.7 | 3.5 | 0.00 | 0.00 | 0.00 | 85 | 1019.5 |
| 20260506164035 | 55 | 245 | 1.7 | 5.2 | 0.00 | 0.00 | 0.00 | 84 | 1019.5 |
| 20260506163531 | 55 | 306 | 2.6 | 3.5 | 0.00 | 0.00 | 0.00 | 85 | 1019.5 |
| 20260506163027 | 55 | 314 | 0.9 | 2.6 | 0.00 | 0.00 | 0.00 | 84 | 1019.9 |
| 20260506162524 | 56 | 292 | 1.7 | 4.3 | 0.00 | 0.00 | 0.00 | 84 | 1020.0 |
| 20260506162021 | 56 | 336 | 2.6 | 3.5 | 0.00 | 0.00 | 0.00 | 83 | 1019.9 |
| 20260506161519 | 56 | 38 | 0.9 | 1.7 | 0.00 | 0.00 | 0.00 | 84 | 1019.7 |
| 20260506161016 | 55 | 60 | 0.9 | 2.6 | 0.00 | 0.00 | 0.00 | 84 | 1019.5 |
| 20260506160514 | 55 | 306 | 0.9 | 3.5 | 0.00 | 0.00 | 0.00 | 83 | 1019.3 |
| 20260506160011 | 56 | 0 | 2.6 | 3.5 | 0.00 | 0.00 | 0.00 | 83 | 1019.5 |
| 20260506155509 | 56 | 313 | 1.7 | 5.2 | 0.00 | 0.00 | 0.00 | 83 | 1019.5 |
| 20260506153640 | 55 | 0 | 0.9 | 5.2 | 0.00 | 0.00 | 0.00 | 84 | 1018.9 |
| 20260506153137 | 55 | 328 | 1.7 | 4.3 | 0.00 | 0.00 | 0.00 | 84 | 1019.0 |
| 20260506152634 | 55 | 44 | 5.2 | 6.1 | 0.00 | 0.00 | 0.00 | 85 | 1019.0 |
| 20260506152131 | 55 | 167 | 1.7 | 8.7 | 0.00 | 0.00 | 0.00 | 85 | 1018.9 |
| 20260506151630 | 55 | 41 | 3.5 | 5.2 | 0.00 | 0.00 | 0.00 | 86 | 1019.0 |
| 20260506151126 | 55 | 343 | 1.7 | 4.3 | 0.00 | 0.00 | 0.00 | 87 | 1019.3 |
| 20260506150623 | 54 | 345 | 1.7 | 2.6 | 0.00 | 0.00 | 0.00 | 86 | 1019.0 |
| 20260506150120 | 54 | 37 | 1.7 | 5.2 | 0.00 | 0.00 | 0.00 | 87 | 1019.2 |
| 20260506145617 | 54 | 95 | 3.5 | 5.2 | 0.00 | 0.00 | 0.00 | 88 | 1019.1 |
| 20260506145114 | 54 | 43 | 2.6 | 2.6 | 0.00 | 0.00 | 0.00 | 88 | 1019.6 |
| 20260506144611 | 54 | 9 | 2.6 | 2.6 | 0.00 | 0.00 | 0.00 | 89 | 1019.5 |
| 20260506144108 | 54 | 0 | 2.6 | 4.3 | 0.00 | 0.00 | 0.00 | 89 | 1019.2 |
| 20260506143606 | 54 | 347 | 1.7 | 2.6 | 0.00 | 0.00 | 0.00 | 90 | 1018.9 |
| 20260506143104 | 53 | 127 | 0.9 | 5.2 | 0.00 | 0.00 | 0.00 | 90 | 1018.8 |
| 20260506142601 | 53 | 33 | 0.0 | 3.5 | 0.00 | 0.00 | 0.00 | 91 | 1019.0 |
| 20260506142059 | 53 | 216 | 0.0 | 6.1 | 0.00 | 0.00 | 0.00 | 91 | 1018.9 |
| 20260506141557 | 53 | 39 | 3.5 | 4.3 | 0.00 | 0.00 | 0.00 | 91 | 1019.1 |
| 20260506141055 | 53 | 33 | 0.9 | 4.3 | 0.00 | 0.00 | 0.00 | 91 | 1018.9 |
| 20260506140552 | 53 | 45 | 1.7 | 1.7 | 0.00 | 0.00 | 0.00 | 92 | 1018.9 |
| 20260506140049 | 53 | 29 | 1.7 | 1.7 | 0.00 | 0.00 | 0.00 | 92 | 1018.9 |
| 20260506135546 | 53 | 356 | 1.7 | 2.6 | 0.00 | 0.00 | 0.00 | 92 | 1018.8 |
| 20260506135042 | 53 | 12 | 1.7 | 5.2 | 0.00 | 0.00 | 0.00 | 92 | 1018.9 |
| 20260506134539 | 53 | 66 | 1.7 | 3.5 | 0.00 | 0.00 | 0.00 | 92 | 1018.5 |
| 20260506134035 | 53 | 27 | 1.7 | 2.6 | 0.00 | 0.00 | 0.00 | 92 | 1018.7 |
| 20260506133532 | 53 | 46 | 1.7 | 2.6 | 0.00 | 0.00 | 0.00 | 92 | 1018.7 |
| 20260506133029 | 53 | 27 | 1.7 | 1.7 | 0.00 | 0.00 | 0.00 | 91 | 1018.9 |
| 20260506132526 | 53 | 5 | 1.7 | 1.7 | 0.00 | 0.00 | 0.00 | 91 | 1018.9 |
| 20260506132024 | 53 | 17 | 0.9 | 1.7 | 0.00 | 0.00 | 0.00 | 91 | 1019.0 |
| 20260506131520 | 53 | 355 | 0.9 | 1.7 | 0.00 | 0.00 | 0.00 | 91 | 1019.0 |
| 20260506131017 | 53 | 24 | 1.7 | 2.6 | 0.00 | 0.00 | 0.00 | 91 | 1018.8 |
| 20260506130514 | 53 | 22 | 0.9 | 2.6 | 0.00 | 0.00 | 0.00 | 91 | 1018.8 |
| 20260506130011 | 53 | 3 | 0.9 | 1.7 | 0.00 | 0.00 | 0.00 | 91 | 1018.7 |
| 20260506125510 | 53 | 319 | 1.7 | 1.7 | 0.00 | 0.00 | 0.00 | 91 | 1018.6 |
| 20260506125007 | 53 | 13 | 0.9 | 1.7 | 0.00 | 0.00 | 0.00 | 91 | 1018.5 |
| 20260506124505 | 53 | 19 | 0.9 | 1.7 | 0.00 | 0.00 | 0.00 | 91 | 1018.2 |
| 20260506124002 | 53 | 3 | 0.9 | 1.7 | 0.00 | 0.00 | 0.00 | 91 | 1018.4 |
| 20260506123500 | 53 | 331 | 1.7 | 2.6 | 0.00 | 0.00 | 0.00 | 91 | 1018.4 |
| 20260506122958 | 52 | 24 | 1.7 | 2.6 | 0.00 | 0.00 | 0.00 | 92 | 1018.2 |
| 20260506122454 | 52 | 33 | 2.6 | 2.6 | 0.00 | 0.00 | 0.00 | 92 | 1018.2 |
| 20260506121953 | 52 | 340 | 1.7 | 1.7 | 0.00 | 0.00 | 0.00 | 91 | 1018.3 |
| 20260506121449 | 52 | 352 | 0.9 | 1.7 | 0.00 | 0.00 | 0.00 | 91 | 1018.4 |
| 20260506120946 | 52 | 346 | 0.9 | 1.7 | 0.00 | 0.00 | 0.00 | 92 | 1018.5 |
| 20260506120443 | 52 | 40 | 1.7 | 1.7 | 0.00 | 0.00 | 0.00 | 91 | 1018.5 |
| 20260506115941 | 52 | 16 | 1.7 | 1.7 | 0.00 | 0.00 | 0.00 | 91 | 1018.4 |
| 20260506115439 | 53 | 323 | 1.7 | 2.6 | 0.00 | 0.00 | 0.00 | 91 | 1018.6 |
| 20260506114937 | 52 | 342 | 1.7 | 1.7 | 0.00 | 0.00 | 0.00 | 92 | 1018.2 |
| 20260506114434 | 52 | 17 | 1.7 | 2.6 | 0.00 | 0.00 | 0.00 | 92 | 1018.4 |
| 20260506113932 | 52 | 355 | 0.9 | 1.7 | 0.00 | 0.00 | 0.00 | 92 | 1018.3 |
| 20260506113430 | 52 | 338 | 1.7 | 2.6 | 0.00 | 0.00 | 0.00 | 93 | 1018.3 |
| 20260506112926 | 52 | 10 | 0.9 | 1.7 | 0.00 | 0.00 | 0.00 | 93 | 1018.2 |
| 20260506112424 | 52 | 3 | 0.9 | 3.5 | 0.00 | 0.00 | 0.00 | 94 | 1018.1 |
| 20260506111921 | 52 | 13 | 1.7 | 1.7 | 0.00 | 0.00 | 0.00 | 94 | 1018.1 |
| 20260506111419 | 52 | 4 | 1.7 | 2.6 | 0.00 | 0.00 | 0.00 | 94 | 1018.2 |
| 20260506110916 | 51 | 27 | 1.7 | 2.6 | 0.00 | 0.00 | 0.00 | 95 | 1018.1 |
| 20260506110414 | 51 | 14 | 0.9 | 1.7 | 0.00 | 0.00 | 0.00 | 95 | 1017.9 |
| 20260506105910 | 51 | 333 | 1.7 | 1.7 | 0.00 | 0.00 | 0.00 | 95 | 1017.7 |
| 20260506105406 | 51 | 29 | 0.9 | 1.7 | 0.00 | 0.00 | 0.00 | 95 | 1017.6 |
| 20260506104904 | 51 | 2 | 0.9 | 1.7 | 0.00 | 0.00 | 0.00 | 95 | 1017.7 |
| 20260506104401 | 50 | 334 | 0.9 | 1.7 | 0.00 | 0.00 | 0.00 | 95 | 1017.6 |
| 20260506103859 | 50 | 315 | 0.0 | 1.7 | 0.00 | 0.00 | 0.00 | 95 | 1017.5 |
| 20260506103356 | 50 | 315 | 1.7 | 1.7 | 0.00 | 0.00 | 0.00 | 95 | 1017.8 |
| 20260506102853 | 50 | 334 | 0.9 | 1.7 | 0.00 | 0.00 | 0.00 | 95 | 1017.6 |
| 20260506102352 | 50 | 263 | 0.0 | 1.7 | 0.00 | 0.00 | 0.00 | 95 | 1017.5 |
| 20260506101848 | 50 | 327 | 1.7 | 1.7 | 0.00 | 0.00 | 0.00 | 95 | 1017.5 |
| 20260506101344 | 49 | 288 | 1.7 | 1.7 | 0.00 | 0.00 | 0.00 | 95 | 1017.7 |
| 20260506100842 | 49 | 274 | 0.9 | 1.7 | 0.00 | 0.00 | 0.00 | 95 | 1017.6 |
| 20260506100340 | 50 | 335 | 0.0 | 2.6 | 0.00 | 0.00 | 0.00 | 94 | 1017.4 |
| 20260506095838 | 50 | 21 | 0.0 | 1.7 | 0.00 | 0.00 | 0.00 | 94 | 1017.3 |
| 20260506095335 | 50 | 269 | 0.0 | 1.7 | 0.00 | 0.00 | 0.00 | 94 | 1017.2 |
| 20260506094832 | 50 | 4 | 0.9 | 1.7 | 0.00 | 0.00 | 0.00 | 94 | 1017.2 |
| 20260506094331 | 50 | 335 | 0.9 | 2.6 | 0.00 | 0.00 | 0.00 | 94 | 1017.5 |
| 20260506093829 | 50 | 290 | 0.9 | 1.7 | 0.00 | 0.00 | 0.00 | 94 | 1017.3 |
| 20260506093326 | 50 | 324 | 0.9 | 2.6 | 0.00 | 0.00 | 0.00 | 93 | 1017.5 |
| 20260506092823 | 50 | 288 | 2.6 | 2.6 | 0.00 | 0.00 | 0.00 | 93 | 1017.4 |
| 20260506092321 | 51 | 349 | 1.7 | 1.7 | 0.00 | 0.00 | 0.00 | 93 | 1017.3 |
| 20260506091818 | 51 | 297 | 1.7 | 1.7 | 0.00 | 0.00 | 0.00 | 92 | 1017.2 |
| 20260506091315 | 51 | 323 | 0.9 | 4.3 | 0.00 | 0.00 | 0.00 | 92 | 1017.2 |
| 20260506090813 | 51 | 300 | 4.3 | 5.2 | 0.00 | 0.00 | 0.00 | 92 | 1017.1 |
| 20260506090310 | 51 | 279 | 5.2 | 5.2 | 0.00 | 0.00 | 0.00 | 93 | 1017.1 |
| 20260506085807 | 51 | 300 | 3.5 | 4.3 | 0.00 | 0.00 | 0.00 | 93 | 1017.2 |
| 20260506085305 | 51 | 291 | 1.7 | 4.3 | 0.00 | 0.00 | 0.00 | 93 | 1017.3 |
| 20260506084759 | 51 | 307 | 0.9 | 3.5 | 0.00 | 0.00 | 0.00 | 93 | 1017.1 |
| 20260506084256 | 51 | 281 | 1.7 | 3.5 | 0.00 | 0.00 | 0.00 | 92 | 1017.2 |
| 20260506083753 | 51 | 347 | 0.0 | 3.5 | 0.00 | 0.00 | 0.00 | 92 | 1017.1 |
| 20260506083251 | 52 | 292 | 3.5 | 5.2 | 0.00 | 0.00 | 0.00 | 92 | 1017.1 |
| 20260506082748 | 51 | 273 | 2.6 | 5.2 | 0.00 | 0.00 | 0.00 | 92 | 1016.9 |
| 20260506082243 | 51 | 269 | 2.6 | 5.2 | 0.00 | 0.00 | 0.00 | 93 | 1017.1 |
| 20260506081741 | 51 | 257 | 0.9 | 4.3 | 0.00 | 0.00 | 0.00 | 93 | 1016.9 |
| 20260506081238 | 51 | 291 | 1.7 | 3.5 | 0.00 | 0.00 | 0.00 | 93 | 1016.8 |
| 20260506080737 | 51 | 268 | 1.7 | 3.5 | 0.00 | 0.00 | 0.00 | 92 | 1016.9 |
| 20260506080232 | 51 | 293 | 2.6 | 4.3 | 0.00 | 0.00 | 0.00 | 92 | 1016.8 |
| 20260506073217 | 52 | 241 | 3.5 | 7.0 | 0.00 | 0.00 | 0.00 | 91 | 1016.5 |
| 20260506072713 | 53 | 297 | 1.7 | 6.1 | 0.00 | 0.00 | 0.00 | 90 | 1016.4 |
| 20260506072211 | 53 | 277 | 2.6 | 7.8 | 0.00 | 0.00 | 0.00 | 91 | 1016.5 |
| 20260506071708 | 53 | 285 | 4.3 | 7.0 | 0.00 | 0.00 | 0.00 | 90 | 1016.3 |
| 20260506071206 | 53 | 292 | 3.5 | 6.1 | 0.00 | 0.00 | 0.00 | 90 | 1016.4 |
| 20260506070703 | 53 | 287 | 3.5 | 5.2 | 0.00 | 0.00 | 0.00 | 90 | 1016.4 |
| 20260506070200 | 53 | 282 | 4.3 | 6.1 | 0.00 | 0.00 | 0.00 | 90 | 1016.3 |
| 20260506062137 | 53 | 309 | 2.6 | 5.2 | 0.00 | 0.00 | 0.00 | 90 | 1016.2 |
| 20260506061632 | 53 | 279 | 2.6 | 5.2 | 0.00 | 0.00 | 0.00 | 90 | 1016.2 |
| 20260506061131 | 53 | 296 | 3.5 | 7.0 | 0.00 | 0.00 | 0.00 | 89 | 1016.4 |
| 20260506060629 | 53 | 281 | 3.5 | 5.2 | 0.00 | 0.00 | 0.00 | 89 | 1016.3 |
| 20260506060125 | 53 | 279 | 6.1 | 8.7 | 0.00 | 0.00 | 0.00 | 89 | 1016.2 |